AirNav   Air Wisconsin Up To $57,000 Bonus
 
 789 users online  

3MO1 Police Dept Helicopter Maint Facility Heliport
Kansas City, Missouri, USA

GOING TO KANSAS CITY?


FAA INFORMATION EFFECTIVE 12 SEPTEMBER 2019

Location

FAA Identifier: 3MO1
Lat/Long: 39-02-45.0190N 094-29-50.8320W
39-02.750317N 094-29.847200W
39.0458386,-94.4974533
(estimated)
Elevation: 855 ft. / 261 m (estimated)
Variation: 05E (1985)
From city: HELIPORT 7 SE KANSAS CITY MUNI.
Time zone: UTC -5 (UTC -6 during Standard Time)
Zip code: 64129

Heliport Operations

Heliport use: Private use. Permission required prior to landing
Activation date: 05/1972
Control tower: no
ARTCC: KANSAS CITY CENTER
FSS: COLUMBIA FLIGHT SERVICE STATION
Attendance: CONTINUOUS
Wind indicator: yes
Segmented circle: no

Heliport Communications

WX ASOS at MKC (6 nm NW): PHONE 816-329-2843
WX ASOS at LXT (8 nm SE): 124.175 (816-347-9807)
WX ASOS at OJC (16 nm SW): PHONE 913-780-6969
WX ASOS at MCI (18 nm NW): PHONE 816-329-2808
WX AWOS-3 at GPH (19 nm NE): 120.275 (816-407-3399)

Nearby radio navigation aids

VOR radial/distance  VOR name  Freq  Var
ANXr253/17.4NAPOLEON VORTAC114.0007E
MCIr137/18.2KANSAS CITY VORTAC113.2505E

Heliport Services

Airframe service: MAJOR
Powerplant service: MINOR

Runway Information

Helipad H1

Dimensions: 25 x 25 ft. / 8 x 8 m
Surface: concrete
Latitude: 39-02.750333N
Longitude: 094-29.847167W
Elevation: 855.0 ft.
Traffic pattern: leftleft

Helipad H2

Dimensions: 25 x 25 ft. / 8 x 8 m
Surface: concrete
Traffic pattern: leftleft

Helipad H3

Dimensions: 25 x 25 ft. / 8 x 8 m
Surface: concrete
Traffic pattern: leftleft

Heliport Ownership and Management from official FAA records

Ownership: Publicly-owned
Owner: BOARD OF POLICE COMMISSIONERS
1125 LOCUST
KANSAS CITY, MO 64129
Phone 816-234-5000
Manager: CAPT. SHAWN NICHOLS
4601 EASTERN
KANSAS CITY, MO 64129
Phone 816-929-2700

Heliport Operational Statistics

Aircraft based on the field: 3
Helicopters: 3
    

Additional Remarks

FOR CD CTC KANSAS CITY APCH AT 816-329-2710.

Instrument Procedures

There are no published instrument procedures at 3MO1.

Some nearby airports with instrument procedures:

KMKC - Charles B Wheeler Downtown Airport (6 nm NW)
KLXT - Lee's Summit Municipal Airport (8 nm SE)
3GV - East Kansas City Airport (13 nm E)
KOJC - Johnson County Executive Airport (16 nm SW)
KMCI - Kansas City International Airport (18 nm NW)
KGPH - Midwest National Air Center Airport (19 nm NE)
 
Loc | Ops | Rwys | IFR | FBO | Links
Com | Nav | Svcs | Stats | Notes

Kansas City Aviation Department
 
Area around 3MO1 (Police Dept Helicopter Maint Facility Heliport)
 
Road maps at: MapQuest Bing Google
 
Aerial photo
No photo
 
Sectional chart

 
Airport distance calculator
Flying to Police Dept Helicopter Maint Facility Heliport? Find the distance to fly.

From to 3MO1

Sunrise and sunset
Times for 22-Sep-2019
 Local
(UTC-5)
 Zulu
(UTC)
Morning civil twilight06:4011:40
Sunrise07:0712:07
Sunset19:1500:15
Evening civil twilight19:4100:41

Current date and time
Zulu (UTC)  22-Sep-2019 13:24:17
Local (UTC-5)  22-Sep-2019 08:24:17
 
METAR
KMKC 
6nm NW 
221254Z 09007KT 7SM -RA BKN005 BKN024 OVC045 20/18 A2988 RMK AO2 RAB00 SLP110 P0013 T02000183
KLXT 
8nm SE 
221256Z AUTO 08010KT 1 3/4SM +RA BR FEW005 BKN014 OVC023 19/18 A2990 RMK AO2 P0008 T01940183
KOJC 
16nm SW 
221302Z 09006KT 2SM +RA BR OVC009 19/19 A2990 RMK AO2 P0014 T01890189
KMCI 
19nm NW 
221253Z 10010KT 2 1/2SM RA BR SCT004 OVC022 18/18 A2989 RMK AO2 SFC VIS 5 SLP114 P0009 T01830183 $
KGPH 
19nm NE 
221235Z AUTO 00000KT 10SM -DZ SCT005 BKN016 BKN060 18/17 A2992 RMK AO2
TAF
KMKC 
6nm NW 
221128Z 2212/2312 VRB05KT P6SM -RA BKN006 BKN022 OVC028 TEMPO 2215/2217 2SM TSRA BR OVC009CB FM221700 23008G20KT 5SM -RA BR OVC012 TEMPO 2217/2219 4SM -TSRA BR OVC009CB FM221900 26008KT 5SM BR VCSH OVC011 FM222300 32009KT P6SM SCT016 FM230600 00000KT P6SM FEW200
KMCI 
19nm NW 
221127Z 2212/2312 14010KT 6SM -RA BR BKN004 BKN018 OVC030 TEMPO 2213/2217 2SM TSRA BR OVC007CB FM221700 27010G20KT P6SM -RA OVC009 TEMPO 2217/2219 4SM -TSRA BR OVC003CB FM221900 28012G22KT P6SM VCSH OVC011 FM222300 32015KT P6SM SCT025 FM231100 VRB04KT 4SM BR FEW250
NOTAMs
Click for the latest NOTAMs
NOTAMs are issued by the DoD/FAA and will open in a separate window not controlled by AirNav.

 

 
 

Would you like to see your business listed on this page?

 If your business provides an interesting product or service to pilots, flight crews, aircraft, or users of the Police Dept Helicopter Maint Facility Heliport, you should consider listing it here.  To start the listing process, click on the button below
 
Add a business
 

Other Pages about Police Dept Helicopter Maint Facility Heliport

Update a link
 
Copyright © AirNav, LLC. All rights reserved. Privacy Policy  Contact